Location: Maddington
(51.2000°N, 1.9167°W)
Time: 14:59:24
(UTC+00:00)

NOSS 2-2 (E) - Pass Details

Date: 23 January 2021
Orbit: 462 x 1744 km, 63.3° (Epoch: 03 March)

Event Time Altitude Azimuth Distance (km) Brightness Sun altitude
Rises 19:41:09 0° 315° (NW) 2,974 7.7 -27.6°
Reaches altitude 10° 19:43:13 10° 321° (NW) 2,194 6.9 -27.9°
Enters shadow 19:47:02 47° 359° (N) 1,106 4.7 -28.5°
